www.srh.weather.gov   
NOAA logo - Click to go to the NOAA homepage   NWS logo
Other Public Products
Enter Your "City, ST" or zip code   
Current Version              Previous Version:    01  02  03  04  05  06  07  08  09  10  11  12  13  14  15  16  17  18  19  20  21  22  23  24  25  26  27  28  29  30  
   31  32  33  34  35  36  37  38  39  40  41  42  43  44  45  46  47  48  49  50  51  52  53  54  55  56  57  58  59  60  
[Printable]
945
FPUS83 KFGF 290810
OPUFGF
PRAIRIE TO PINES WEATHER ROUNDUP
NATIONAL WEATHER SERVICE EASTERN NORTH DAKOTA/GRAND FORKS ND
300 AM CDT FRI AUG 29 2014

 **SATELLITE DATA USED TO AUGMENT SKY COVER AT AUTOMATED STATIONS**
 *****  WEATHER ACROSS EASTERN NORTH DAKOTA  *****

CITY           SKY/WX    TMP DP  RH WIND       PRES   REMARKS
GRAND FORKS    CLOUDY    67  64  90 S9        29.79S
GRAND FORKS AF CLOUDY    67  66  99 SW8       29.80S
GRAND CITY NWS   N/A     64 N/A N/A S6          N/A
BUXTON         NOT AVBL
DEVILS LAKE    CLOUDY    66  63  88 S10       29.77S
FARGO          CLOUDY    66  64  93 S5        29.79F
WAHPETON ARPT  CLOUDY    64  63  94 S5        29.80F
$$

 *****  WEATHER ACROSS CENTRAL AND WESTERN NORTH DAKOTA  *****

CITY           SKY/WX    TMP DP  RH WIND       PRES   REMARKS
JAMESTOWN      FOG       65  64  97 S8        29.79F VSB 1/2
BISMARCK       FOG       61  61 100 E3        29.80S VSB 1/4
MINOT          PTCLDY    69  63  81 SW14      29.71F
MINOT AFB      CLEAR     67  66  99 W9        29.70F
GARRISON         N/A     64  63  96 S7        29.76F
WILLISTON      CLEAR     65  55  70 N22G32    29.84R
DICKINSON      MOCLDY    59  54  83 S6        29.80S
HETTINGER      CLEAR     55  53  93 CALM      29.84F
$$

 *****  OTHER OBSERVATIONS NORTHEAST NORTH DAKOTA  *****

CITY           SKY/WX    TMP DP  RH WIND       PRES   REMARKS
WALHALLA         N/A     68  68 100 SW8       29.76F
LANGDON        CLOUDY    66  64  94 SW13G20   29.78S
CAVALIER       CLOUDY    68  64  88 S9        29.76F
GRAFTON        CLOUDY    66  64  94 SW12      29.78F
CANDO          CLOUDY    64  64 100 S12       29.77F
FORT TOTTEN      N/A     66  65  96 S7        29.95S
ROLLA          CLOUDY    64  64 100 S8        29.77S
RUGBY          PTSUNNY   63  63 100 S8        29.75S
 ***** THE ABOVE OBSERVATIONS ARE NON NWS ARE NOT QUALITY
        CONTROLLED AND MAY MIS-REPORT RAIN FOR SNOW...
$$

 *****  OTHER OBSERVATIONS SOUTHEAST NORTH DAKOTA *****

CITY           SKY/WX    TMP DP  RH WIND       PRES   REMARKS
COOPERSTOWN    NOT AVBL
VALLEY CITY    CLOUDY    64  64 100 S8        29.80F FOG
OAKES            N/A     63  63 100 SE5       29.80S FOG
GWINNER        CLOUDY    66  66 100 CALM      29.81F
BUFFALO        NOT AVBL
WYNDMERE       NOT AVBL
 ***** THE ABOVE OBSERVATIONS ARE NON NWS ARE NOT QUALITY
       CONTROLLED AND MAY MIS-REPORT RAIN FOR SNOW...
$$

  *****  WEATHER ACROSS NORTHERN MINNESOTA  *****

CITY           SKY/WX    TMP DP  RH WIND       PRES   REMARKS
FLAG ISLAND    CLOUDY    66  63  88 S5        29.81F
WARROAD        CLOUDY    64  61  88 S3        29.83F
ROSEAU         MOCLDY    66  61  82 S8        29.82F
HALLOCK        CLOUDY    66  64  94 S12       29.78F
THF RVR FALLS  CLOUDY    63  61  94 S5        29.83S
HALSTAD          N/A     64  63  94 CALM        N/A
FOSSTON        CLOUDY    63  61  94 S8        29.83F
BAUDETTE       CLOUDY    64  61  90 CALM      29.85R
WASKISH        CLOUDY    64  61  88 CALM      29.85S
CROOKSTON      CLOUDY    64  63  94 CALM      29.82S
$$
  *****  WEATHER ACROSS CENTRAL AND WEST MINNESOTA  *****

CITY           SKY/WX    TMP DP  RH WIND       PRES   REMARKS
BEMIDJI        CLOUDY    64  62  93 S7        29.84F
PARK RAPIDS    CLOUDY    64  63  96 SE7       29.83F
WADENA         CLOUDY    63  63 100 SE6       29.82F FOG
DETROIT LAKES  DRIZZLE   64  63  94 SE7       29.83F
MOORHEAD       DRIZZLE   66  66 100 CALM      29.81F
FERGUS FALLS   CLOUDY    66  64  94 SE8       29.80F FOG
ELBOW LAKE     CLOUDY    64  64  99 S6        29.81F FOG
MORRIS MN      CLOUDY    66  64  94 E6        29.80F FOG
STAPLES        LGT RAIN  63  63 100 SE5       29.83F
WHEATON        FOG       63  63 100 E5        29.81F VSB 1
$$
  *****  WEATHER ELSEWHERE ACROSS MINNESOTA  *****

CITY           SKY/WX    TMP DP  RH WIND       PRES   REMARKS
DULUTH         CLOUDY    61  56  83 SE8       29.89F
INTRNTL FALLS  CLOUDY    60  59  96 CALM      29.87S
ELY            CLOUDY    59  54  82 CALM      29.90F
CLOQUET        RAIN      61  57  88 E3        29.89F
BRAINERD       CLOUDY    62  62 100 SE3       29.85F FOG
HIBBING        CLOUDY    59  56  89 SE5       29.88F
ALEXANDRIA     CLOUDY    64  63  96 SE6       29.84F
SAINT CLOUD    CLOUDY    67  65  93 E6        29.82F FOG
MINNEAPOLIS    CLOUDY    67  66  97 SE12      29.82F THUNDER
$$

  *****  WEATHER ACROSS SOUTH DAKOTA  *****

CITY           SKY/WX    TMP DP  RH WIND       PRES   REMARKS
SIOUX FALLS    CLOUDY    72  70  93 SW8       29.77F
BROOKINGS      NOT AVBL
WATERTOWN      CLOUDY    66  66 100 SE5       29.79S FOG
HURON          CLOUDY    69  68  96 CALM      29.77F FOG
SISSETON         N/A     65  65 100 CALM      29.78F
ABERDEEN       CLOUDY    65  65 100 N3        29.79F
MITCHELL       CLOUDY    71  70  96 CALM      29.77F FOG
PIERRE         CLOUDY    65  65 100 NW5       29.81S FOG
MOBRIDGE       CLOUDY    65  65 100 S6        29.79F
RAPID CITY     CLEAR     55  53  93 NW6       29.89F
$$

  *****  SOME WEATHER IN NEARBY STATES *****

CITY           SKY/WX    TMP DP  RH WIND       PRES   REMARKS
GLASGOW MT     LGT RAIN  60  58  92 NE9       29.90F
GREAT FALLS MT CLEAR     50  48  93 SW7       30.11F
CHEYENNE WY    CLEAR     53  43  68 NW9       30.12F
SCOTTSBLUFF NE CLEAR     51  50  96 NW5       29.99F
OMAHA NE       TSTM      74  70  87 SE16      29.83R
DES MOINES IA  CLOUDY    69  66  90 SE10      29.87F
DAVENPORT IA   PTCLDY    69  67  93 S7        29.94F
CHICAGO IL     CLOUDY    71  63  75 S8        29.97F
EAU CLAIRE WI  CLOUDY    60  58  92 SE10      29.91F
LA CROSSE WI   CLOUDY    66  61  84 E7        29.91S
$$

  *****  SOME NATIONAL WEATHER *****

CITY           SKY/WX    TMP DP  RH WIND       PRES   REMARKS
LA GUARDIA NY  CLEAR     65  51  60 NE9       30.08R
RALEIGH NC     MOCLDY    75  71  87 NE6       30.04R
ATLANTA GA     PTCLDY    74  59  59 CALM      30.04R
NEW ORLEANS LA PTCLDY    78  73  84 CALM      29.94F
OKLAHOMA CITY  CLOUDY    70  64  81 NW13      29.91R
ALBUQUERQUE NM CLEAR     69  43  38 NW8       30.14F
SALT LAKE CITY CLEAR     65  41  41 SE9       30.07F
LOS ANGELES CA CLEAR     69  62  78 W7        29.90S
BOISE ID       CLEAR     68  39  34 SE5       29.96S
SEATTLE WA     PTCLDY    62  57  83 CALM      30.02F
$$

*** WEATHER ACROSS MANITOBA...SASKATCHEWAN AND ONTARIO ***
                ***ONTARIO***

CITY           SKY/WX    TMP DP  RH WIND       PRES   REMARKS
GERALDTON      CLEAR     52  45  76 S7        29.97S
THUNDER BAY    CLOUDY    52  52 100 VRB2      29.94F
SIOUX LOOKOUT  CLOUDY    64  59  82 SW7       29.86S
TORONTO        MOCLDY    54  48  82 NW5       30.16S
BIG TROUT LK   CLOUDY    61  59  94 SW9G17    29.64R
PICKLE LAKE    NOT AVBL
DRYDEN         CLOUDY    64  59  82 S10       29.85F
KENORA         NOT AVBL
$$
                *** MANITOBA***

CITY           SKY/WX    TMP DP  RH WIND       PRES   REMARKS
BRANDON        MOCLDY    63  61  94 E10       29.76R
DAUPHIN        MOCLDY    63  61  94 NW7       29.81R
ISLAND LAKE    NOT AVBL
PILOT MOUND      N/A     66  64  94 W3          N/A
THE PAS        CLEAR     55  45  67 N13       29.86R
THOMPSON       MOCLDY    52  48  87 NW8       29.74R
WINNIPEG       MOCLDY    66  64  94 S14       29.77R
LYNN LAKE      PTCLDY    48  45  87 MISG      29.83R
CHURCHILL      CLOUDY    50  46  87 N14       29.64S
GILLAM         MOCLDY    54  54 100 SW3       29.65R
$$
                ***SASKATCHEWAN***

CITY           SKY/WX    TMP DP  RH WIND       PRES   REMARKS
ESTEVAN        NOT AVBL
KINDERSLEY     PTCLDY    48  45  87 NW7       30.01S
LLOYDMINSTER   CLEAR     46  43  87 CALM      30.00S
PRINCE ALBERT  PTCLDY    46  41  81 NW3       29.97S
REGINA         CLOUDY    57  55  94 NW9       29.91R
YORKTON        CLOUDY    59  54  82 NW6       29.88R



National Weather Service
Disclaimer
Last Modified: August 31, 2005
Privacy Policy